User: anonymous   Login
Location: Kott?ru
(16.6209°N, 80.6208°E)
Time: 18:51:43
(UTC+00:00)
Language:

Cosmos 841 Rocket - Orbit

View from above orbital plane
View from above orbital plane
View from above satellite
View from above satellite

Ground track
Ground track

The orbit data is extracted from the following two-line orbital elements,

1  9023U 76069B   21163.08682613 -.00000006  00000-0  65073-5 0  9992
2  9023  74.0435 289.4749 0016566  95.0399 265.2647 14.39684032354331
Epoch (UTC): 12 June 2021 02:05:01
Eccentricity: 0.0016566
inclination: 74.0435°
perigee height: 748 km
apogee height: 771 km
right ascension of ascending node: 289.4749°
argument of perigee: 95.0399°
revolutions per day: 14.39684032
mean anomaly at epoch: 265.2647°
orbit number at epoch: 35433

The dashed part of the orbit path shows where the satellite is in the earth's shadow,  

DLR